Showing default

COSMOS 86, 1584

Orbit data source: Space-Track

COSMOS 86, 1584 is a payload satellite owned by OKB-10 (CIS) in LEO that was launched on Sat, 18 Sep 1965 UTC via a KOSMOS 65S3 launch vehicle from the Tyuratam Missile And Space Complex (TTMTR). Payload-class satellites include a variety of spacecraft equipped with specific instruments for various scientific and technological missions. These include communications satellites like Starlink; space stations such as the ISS; scientific satellites like the Hubble; Earth observation satellites from companies like Planet Labs, Umbra, and HawkEye 360; GPS; miniature CubeSats for education and research; and military/defense satellites.

Loading next visibility...
Identifier
1584, 1965-073A
Orbit
LEO
Country
Flag of CISCIS
Related business
Manufacturer
OKB-10
Mission
Spacecraft
Bus & Motor
STRELA-1 11F610, Unknown motor
Mass
50 kg wet, 50 kg dry
Launch date (UTC)
1965-09-18 (61 years ago)
Launch vehicle
KOSMOS 65S3
Launch site
Tyuratam Missile And Space Complex (TTMTR)
Object type
Payload
Rocket body
Debris
Shape & HBR
Unknown
Radar Cross Section
Medium (>0.1 m² and <1 m²)

Expand to show TLE details & history
Last TLE update: 13 hours ago

TLE from 13 hours ago
0 COSMOS 86
1  1584U 65073A   26122.46588373 -.00000087  00000-0  48301-4 0  9992
2  1584  56.0589 264.0070 0212463 221.1391 178.8001 12.51919748771725
Epoch: 2026-05-02T11:10Z
TLE epoch observation values (Epoch: 2026-05-02T11:10:52.354Z)
Latitude
32.30083°
Longitude
-99.04301°
Altitude
1,625.252 km
Speed
6.987 km/s
True Right ascension
19h 16m 14s
True Declination
32° 09' 45"
Sunlit
Object was in daylight at epoch
Visualization orbit readout
Latitude
Unknown
Longitude
Unknown
Altitude
Unknown
Speed
Unknown
Apparent Right ascension
Unknown
Apparent Declination
Unknown
Sunlit
N/A
Visualization observer readout
Local Sidereal Time
07:45:18
Azimuth
Unknown
Elevation
Unknown
Doppler factor
Unknown
Orbital elements
Apogee altitude
1,622.751 km
Perigee altitude
1,289.845 km
Semi-major axis
7,834.435 km
Eccentricity
0.02125
Inclination
56.0589°
RAAN
264.007°
Arg. of periapsis
221.1391°
True anomaly
178.84976°
Mean anomaly
178.8001°
Eccentric anomaly
178.82506°
Mean motion
3.12991 °/min
Orbital period
115.02 mins
BSTAR
0.000048301
Loading maneuver chart data...
Computing Atmospheric mass density...
Loading historical data...
Loading historical data...
Loading historical data...
Loading historical data...
Loading historical data...
Loading historical data...
Loading historical data...

Documentation

Showing up to 5 results
|